Regional Weather Roundup
Issued by NWS

Home | Current Version | Previous Version | Text Only | Print | Product List | Glossary On
Versions: 1 2 3 4 5 6 7 8 9 10 11 12 13 14 15 16 17 18 19 20 21 22 23 24 25 26 27 28 29 30 31 32 33 34 35 36 37 38 39 40 41 42 43 44 45 46 47 48 49 50
000
ASUS43 KDTX 220510
RWRMI
MICHIGAN HOURLY REGIONAL WEATHER ROUNDUP
NATIONAL WEATHER SERVICE DETROIT/PONTIAC MI
100 AM EDT MON MAY 22 2017

NOTE: "FAIR" INDICATES FEW OR NO CLOUDS BELOW 12,000 FEET WITH NO
SIGNIFICANT WEATHER AND/OR OBSTRUCTION TO VISIBILITY.

MIZ047>049-052>055-059>063-066>070-074>076-081>083-220600-
SOUTHEAST LOWER MICHIGAN

CITY           SKY/WX    TMP DP  RH WIND       PRES   REMARKS
ADRIAN         CLOUDY    57  48  72 W8        29.98R
ALMA           CLOUDY    52  43  71 W14G24    29.95S
ANN ARBOR      PTCLDY    57  50  77 W10       29.95S
BAD AXE        CLOUDY    57  47  68 W8        29.91S
CARO           CLOUDY    56  48  74 W5        29.92S
DETROIT CITY   PTCLDY    60  52  74 W7        29.94R
DETROIT        MOCLDY    61  51  70 W9        29.96R
FLINT          CLOUDY    56  46  69 W10       29.94S
GROSSE ILE     MOCLDY    60  50  69 W5        29.94S
HILLSDALE      CLOUDY    54  45  71 W13       29.98F
HOWELL         CLOUDY    55  45  67 W8        29.96S

CITY           SKY/WX    TMP DP  RH WIND       PRES   REMARKS
JACKSON        CLOUDY    55  46  71 W13       29.97F
LAMBERTVILLE   CLOUDY    60  49  69 W7        29.98R
LANSING        CLOUDY    53  44  71 W20       29.98R
LAPEER         CLOUDY    58  46  65 W7        29.95R
MASON          CLOUDY    55  47  74 W7G17     29.97F
MONROE         CLOUDY    59  50  70 W8        29.95S
MT. CLEMENS    PTCLDY    59  56  91 CALM      29.92R
PONTIAC        PTCLDY    57  47  69 W15       29.93R
PORT HOPE        N/A     58  45  62 W12G21    29.87F
PORT HURON     PTCLDY    55  50  82 CALM      29.94R
TRI CITIES     CLOUDY    56  46  69 W20G25    29.93F
MIDLAND        CLOUDY    56  43  61 W8        29.92S
TROY           PTCLDY    60  48  64 W9        29.96R
SAGINAW HB     CLOUDY    55  45  67 SW7       29.93S
$$
MIZ043>046-050>051-056>058-064>065-071>073-077>080-220600-
SOUTHWEST LOWER MICHIGAN

CITY           SKY/WX    TMP DP  RH WIND       PRES   REMARKS
BATTLE CREEK   CLOUDY    51  44  77 W13       30.00F
BENTON HARBOR  CLOUDY    52  41  66 W14       30.02F
BIG RAPIDS     CLOUDY    49  40  71 W9        29.92F
COLDWATER      CLOUDY    53  46  79 W15G21    30.00F
FREMONT        CLOUDY    49  39  68 SW12G20   29.94F
HOLLAND        CLOUDY    50  42  74 W16G24    29.99F
GRAND RAPIDS   CLOUDY    51  42  71 W20       29.98S
IONIA          CLOUDY    51  42  71 SW15G21   29.97S
KALAMAZOO      CLOUDY    52  39  61 W15G21    30.01F
LUDINGTON      CLOUDY    47  43  87 SW14      29.91F
MARSHALL       CLOUDY    52  45  76 W15G22    29.99F
MOUNT PLEASANT CLOUDY    52  42  69 SW10      29.93S
MUSKEGON       CLOUDY    49  42  77 SW15      29.96F
SOUTH HAVEN    CLOUDY    51  42  72 W10G18    30.01F
$$
MIZ016>042-220600-
NORTHERN LOWER MICHIGAN

CITY           SKY/WX    TMP DP  RH WIND       PRES   REMARKS
ALPENA         CLOUDY    52  51  97 CALM      29.87R
BEAVER ISLAND  CLOUDY    49  43  81 SW9G17    29.83S
BELLAIRE       CLOUDY    52  43  71 SW13G20   29.88S
CADILLAC       CLOUDY    47  44  88 SW10      29.89F
CHARLEVOIX     CLOUDY    52  44  73 SW10G17   29.88S
FRANKFORT      CLOUDY    48  42  79 S12       29.88F
GAYLORD        CLOUDY    53  42  66 W14       29.86S
GRAYLING       CLOUDY    52  42  67 SW8       29.88F
HARBOR SPRINGS CLOUDY    51  44  77 SW8G18    29.85S
HOUGHTON LAKE  CLOUDY    52  42  69 SW16G25   29.89F
MANISTEE       CLOUDY    50  42  74 SW10G18   29.90S
OSCODA         CLOUDY    57  45  65 SW6       29.88S
PELLSTON       CLOUDY    53  43  68 SW9       29.85S
ROGERS CITY    CLOUDY    48  47  95 CALM      29.86S
TRAVERSE CITY  CLOUDY    52  43  71 S8G18     29.87S
$$
MIZ007>008-015-220600-
EASTERN UPPER MICHIGAN

CITY           SKY/WX    TMP DP  RH WIND       PRES   REMARKS
KINROSS        CLOUDY    47  46  97 SW7       29.82S
MACKINAC ISLAN CLOUDY    51  45  79 SW12G17   29.83S
NEWBERRY       CLOUDY    45  44  97 S8        29.79S
S. S. MARIE    MOCLDY    49  47  93 SE3       29.81S
MUNISING         N/A     52  50  93 S6        29.75F
$$
MIZ004>006-011>014-085-220600-
CENTRAL UPPER MICHIGAN

CITY           SKY/WX    TMP DP  RH WIND       PRES   REMARKS
MANISTIQUE     CLOUDY    44  41  89 S7        29.79F
ESCANABA       CLOUDY    50  47  89 SW9       29.79F
MENOMINEE      LGT RAIN  50  44  80 W7        29.83S
SAWYER-GWINN   CLOUDY    48  46  93 SW10      29.76F
$$
MIZ001>003-009>011-084-220600-
WESTERN UPPER MICHIGAN

CITY           SKY/WX    TMP DP  RH WIND       PRES   REMARKS
IRON MOUNTAIN  CLOUDY    50  43  77 SW7       29.77S
HOUGHTON       CLOUDY    43  40  89 W7        29.72F
COPPER HARBOR    N/A     46  43  89 W3        29.72S
IRONWOOD       CLOUDY    46  45  96 W9        29.77S
$$

ABBREVIATIONS USED IN REMARKS
   TC - TEMPERATURE IN CELSIUS
  WCI - WIND CHILL INDEX
   HX - HEAT INDEX
  VSB - VISIBILITY





USA.gov is the U.S. government's official web portal to all federal, state and local government web resources and services.